Theta_e
306 306 305 305 304 304 304 304 304 302 301 300 299 305 300 299 296 308 311 310 306 298 292 294 291 290 293 297 296 297 295 293 295 293 295 292 295 293 292 292 288 289 287 288 288 291 288 287 285 288 291 291 293 294 295 296 295 295 294 295 296 297 289 287 288 292 295 297 297 298 299 298 296 296 298 297 295 296 294 295 296 292 294 292 292 287 293
306 306 305 305 304 304 304 304 304 303 301 301 301 300 299 299 300 301 307 310 305 295 286 287 289 292 295 295 294 297 295 294 292 292 293 291 292 291 292 294 296 290 292 291 289 293 284 290 288 287 292 291 296 296 295 296 295 294 294 292 298 288 291 289 285 285 287 290 293 293 297 297 294 294 297 298 298 298 299 299 300 290 295 295 292 285 293
306 306 306 305 304 304 304 304 304 302 302 302 300 296 299 299 302 302 304 306 303 293 295 292 288 289 290 291 290 292 293 295 295 293 292 295 293 292 292 294 294 290 294 292 293 294 290 287 291 292 291 294 296 295 296 297 296 296 298 298 299 291 291 288 282 279 277 277 279 282 286 291 295 297 297 298 297 297 296 291 294 288 294 295 293 291 301
306 306 306 305 304 304 304 304 303 302 302 302 301 300 298 296 289 297 299 302 301 299 301 296 292 288 289 287 292 294 290 294 297 296 292 295 295 294 295 296 297 293 292 287 287 288 294 290 291 291 291 293 294 295 297 297 297 298 299 299 298 291 294 292 290 287 286 288 290 294 295 294 291 294 296 296 297 298 299 297 293 290 294 292 296 298 299
306 306 305 305 305 304 304 304 302 301 301 302 301 300 300 299 292 289 288 295 300 296 297 295 294 290 293 285 290 289 291 292 293 296 288 294 293 294 295 295 293 292 292 290 287 291 290 292 292 290 292 293 295 296 297 298 299 298 297 299 298 294 289 291 292 292 293 294 294 295 296 293 294 294 294 296 297 297 297 292 291 299 295 289 299 301 299
306 306 305 305 304 304 304 304 302 301 301 302 303 297 298 290 293 295 295 288 288 290 291 294 293 295 294 289 292 289 289 290 286 292 293 294 294 290 294 295 294 294 292 293 288 286 288 290 289 294 295 293 294 294 297 296 298 297 297 301 297 294 288 292 292 292 294 295 295 296 295 296 295 295 295 295 296 297 295 296 299 301 293 292 299 301 299
306 306 305 305 304 304 304 304 302 301 301 301 301 292 296 295 293 295 298 289 293 292 292 293 292 292 292 290 291 289 289 288 291 289 288 290 290 293 285 289 292 292 293 292 289 290 284 285 290 291 293 291 292 292 294 296 298 296 298 298 300 294 291 295 294 292 293 295 296 296 295 295 295 295 296 297 297 297 298 298 299 299 299 300 301 300 301
305 306 305 305 304 304 304 304 302 301 300 303 300 295 291 288 287 288 293 292 291 294 294 294 293 290 293 288 292 291 290 288 290 291 289 285 288 293 288 288 290 291 292 293 289 290 291 290 287 294 292 294 293 293 294 294 297 297 296 297 301 292 289 295 295 292 292 294 295 296 295 295 294 296 296 296 297 297 297 298 299 300 299 300 300 300 301
305 306 305 305 304 304 305 304 302 301 301 300 296 296 296 294 296 294 287 285 292 294 295 293 292 289 293 291 292 291 291 290 291 290 294 290 287 290 288 290 290 292 292 293 293 291 292 292 293 295 295 289 297 291 295 299 294 295 295 298 298 296 291 297 296 288 289 293 294 295 296 296 295 294 295 296 296 295 297 294 299 298 297 299 300 298 299
305 305 306 305 304 304 304 304 302 300 301 300 297 293 298 297 298 297 291 285 291 291 295 295 292 289 293 292 291 290 290 292 292 287 294 295 294 292 291 291 290 290 290 290 292 295 295 295 298 299 300 301 301 300 301 301 298 295 295 298 294 296 294 289 290 287 288 293 295 295 295 294 291 291 295 297 297 298 298 298 300 300 302 298 293 296 304
305 305 305 305 304 304 304 304 303 300 301 298 296 295 296 293 291 292 293 286 290 293 294 293 292 294 294 294 291 292 292 293 293 288 288 295 294 297 295 293 290 288 288 292 299 300 300 300 302 303 302 302 302 301 302 302 300 299 298 297 295 296 295 291 295 287 288 293 294 295 291 283 285 297 300 299 297 297 296 296 298 301 302 300 303 303 306
305 305 305 304 304 304 304 303 303 301 299 301 300 297 298 298 296 293 289 284 286 293 292 291 292 293 294 293 293 291 291 292 293 296 290 293 296 298 297 295 294 287 297 303 302 302 304 305 304 303 303 302 302 301 300 297 298 299 300 298 296 293 294 292 295 290 287 291 293 287 282 285 303 301 301 301 301 299 298 299 299 300 301 302 302 303 304
305 305 304 304 303 303 303 303 303 303 301 302 300 296 299 299 295 292 290 286 284 289 288 291 295 296 296 294 293 293 294 296 297 297 297 296 295 297 299 297 295 298 304 303 304 302 297 294 298 300 300 300 300 299 295 294 295 299 300 300 297 292 292 291 290 291 291 289 288 281 283 298 302 302 302 303 301 301 300 298 300 300 301 302 302 303 304
305 305 304 303 303 303 302 302 302 302 301 301 298 298 299 299 294 292 289 285 285 290 292 291 296 294 294 294 294 294 297 297 296 298 295 298 296 298 300 302 304 306 306 306 303 301 295 297 292 294 294 295 292 291 294 295 296 298 299 300 300 299 298 295 290 295 286 288 288 288 297 295 297 297 300 300 297 298 296 290 296 302 303 304 303 304 306
305 304 304 303 303 302 302 301 302 302 302 301 301 300 299 299 298 294 294 290 284 287 292 287 289 292 293 294 295 293 293 294 294 293 297 301 299 301 302 304 306 307 309 304 299 297 293 293 287 286 286 285 282 285 294 291 296 299 300 300 301 301 296 297 291 289 292 289 287 288 287 284 290 299 303 305 310 305 304 299 295 304 306 308 307 306 308
304 303 303 302 302 301 301 301 302 302 302 302 301 299 300 301 300 298 294 289 286 283 290 293 294 294 292 293 296 294 291 291 292 293 295 298 298 301 305 305 306 308 307 304 303 298 293 288 286 286 284 285 291 289 286 292 292 298 301 300 301 302 301 299 293 289 290 289 286 285 284 287 298 303 306 307 308 306 306 299 295 307 311 312 311 308 309
303 302 301 301 301 301 301 302 302 302 303 302 301 300 299 302 299 296 293 291 289 284 294 295 297 296 293 293 295 293 293 289 291 287 286 290 295 300 302 303 308 309 305 300 298 295 292 289 293 292 291 294 288 286 291 291 288 292 298 300 299 298 297 294 292 289 290 289 287 286 290 289 299 305 306 307 308 309 303 289 291 308 313 314 312 310 313
302 301 301 301 300 301 301 302 303 303 303 303 302 300 300 303 301 299 295 291 287 287 294 300 295 291 291 293 291 295 295 293 293 293 291 294 297 297 296 300 300 305 306 295 297 292 290 290 287 287 287 294 296 293 284 292 288 288 291 294 294 294 293 294 290 291 290 288 290 293 294 299 307 307 308 308 310 303 290 286 298 309 313 315 314 314 318
302 301 301 300 301 301 301 302 303 303 304 303 304 301 300 303 302 300 295 292 290 286 294 298 298 295 297 299 297 297 297 295 294 290 289 290 295 297 297 298 302 295 302 295 297 291 290 288 292 290 288 290 294 288 295 290 290 297 295 291 293 293 292 292 294 291 289 290 289 291 295 303 309 308 309 309 302 290 288 305 315 315 314 317 318 318 320
302 301 300 300 300 301 301 302 303 304 304 303 302 298 301 304 303 301 295 290 291 288 292 294 297 295 299 297 294 294 296 296 296 291 289 286 295 295 296 293 298 298 297 299 292 295 290 287 289 294 290 292 293 296 291 291 297 295 294 296 291 292 289 288 288 292 294 292 288 288 286 297 310 309 306 310 295 301 312 315 315 317 317 317 317 320 320
301 301 300 300 300 301 301 302 303 303 303 303 302 301 298 304 303 303 302 296 290 286 290 300 300 298 298 298 299 299 297 294 294 291 293 291 294 291 286 285 290 292 291 292 289 291 292 290 294 292 295 294 294 295 288 290 295 301 299 297 298 300 291 290 294 300 291 289 287 289 298 307 313 310 299 310 312 315 317 316 313 316 317 318 315 320 319
301 300 300 300 300 300 301 302 303 303 303 303 302 302 297 302 303 303 302 300 292 288 291 296 298 297 299 301 302 302 300 300 300 299 294 291 295 292 291 291 292 294 297 298 295 292 297 295 298 293 291 293 299 292 295 291 289 298 303 301 290 300 298 298 292 299 294 292 296 303 307 310 313 312 312 314 315 317 318 317 316 317 316 322 318 318 319
300 300 300 300 300 300 301 302 303 303 303 302 302 301 298 300 301 303 302 295 297 297 299 298 300 301 302 303 305 305 306 305 303 302 301 296 292 297 295 295 295 300 300 299 293 293 294 294 291 298 295 296 293 291 295 296 292 297 294 301 300 304 305 305 301 298 304 306 305 305 308 310 310 314 315 315 316 318 318 317 316 318 320 321 319 321 321
300 300 300 300 300 301 302 303 303 303 302 302 302 301 299 300 301 301 299 296 294 290 295 301 300 296 300 301 304 307 306 304 304 305 306 303 292 293 300 300 302 301 300 300 301 295 295 294 296 299 292 297 298 292 290 289 291 299 296 296 301 304 306 303 299 300 298 291 304 305 308 311 313 313 314 316 316 317 318 317 318 319 321 321 322 321 322
300 299 300 300 301 302 303 303 303 302 302 302 303 303 303 301 303 301 295 288 290 289 284 290 294 301 304 306 307 306 307 308 308 306 304 303 300 296 296 301 303 299 297 300 302 299 296 292 296 297 290 300 301 292 299 294 293 301 293 298 301 300 308 302 299 300 297 296 303 305 310 312 314 314 313 314 315 316 318 318 319 320 321 322 323 323 322
299 299 300 301 301 302 303 303 302 302 302 302 302 301 299 299 303 303 299 298 296 292 286 287 295 305 305 304 303 304 307 307 306 306 305 305 305 304 302 302 301 304 303 302 301 297 296 296 297 295 293 292 305 297 296 301 299 301 297 297 302 303 305 296 304 298 301 304 305 305 306 309 312 314 316 317 317 317 318 319 319 319 319 321 322 322 321
300 300 300 300 300 301 302 302 302 302 302 302 302 302 301 301 303 301 297 296 290 288 291 289 295 299 303 300 304 306 307 306 307 306 304 305 304 304 303 302 300 301 301 301 303 299 299 297 296 295 299 296 302 300 303 302 302 295 295 300 305 303 299 304 303 294 294 296 300 304 297 296 308 311 313 315 316 317 318 318 318 318 318 319 319 320 321
300 300 300 300 300 301 301 302 302 302 302 301 302 302 303 302 303 303 302 299 293 287 288 288 291 297 301 301 307 307 307 307 307 305 304 304 305 304 303 302 302 300 300 299 296 297 297 296 295 295 296 303 299 297 306 305 304 299 299 301 304 301 302 302 296 296 294 301 305 308 308 308 309 312 315 316 316 315 315 316 316 317 318 320 319 318 320
300 301 301 300 300 301 301 302 302 302 301 301 302 302 301 304 305 305 303 303 300 294 291 292 295 296 294 301 305 305 308 308 307 306 306 305 304 305 304 304 302 302 302 300 298 298 298 298 297 298 298 304 301 297 301 292 292 292 299 304 304 307 308 305 304 305 306 307 306 307 308 306 309 313 314 315 317 315 314 316 318 318 319 319 319 319 318
300 300 300 300 300 300 301 302 302 301 301 301 299 299 295 298 303 304 304 302 300 296 288 287 286 292 303 302 305 305 306 308 307 307 306 305 305 305 304 304 304 303 302 298 298 295 298 298 296 304 307 309 301 298 294 296 295 298 304 306 307 309 308 308 309 306 304 309 310 312 310 311 313 314 316 317 317 317 313 316 318 318 318 319 318 318 319
300 300 300 300 301 301 301 302 302 301 300 300 298 292 292 289 297 303 302 303 302 296 290 290 287 294 294 305 306 305 305 305 306 307 308 307 307 307 307 305 305 304 299 299 299 298 298 296 296 301 306 306 300 298 294 295 294 298 304 306 307 307 307 308 310 310 310 310 311 312 311 310 311 313 312 315 317 318 317 317 317 315 318 318 318 318 318
300 301 301 301 301 302 302 302 301 300 300 298 296 295 297 297 300 302 302 301 300 295 290 286 288 292 293 298 306 308 306 306 306 307 307 309 307 308 308 305 305 307 300 298 299 298 296 296 293 299 301 304 300 298 297 297 294 297 304 306 308 308 309 309 310 310 310 311 311 307 308 308 310 309 309 314 315 317 317 317 318 320 316 318 319 318 318
300 301 302 302 302 301 301 300 300 299 299 301 300 299 300 300 300 301 302 301 298 293 294 289 285 289 289 299 304 307 306 307 306 307 307 309 308 308 305 308 306 306 307 299 295 295 300 297 296 297 301 307 297 296 299 296 299 305 306 306 308 309 309 310 310 310 310 310 311 307 305 307 310 313 313 314 315 315 316 316 317 318 317 317 316 316 316
301 301 302 301 301 300 300 300 299 298 299 297 297 299 304 303 303 301 304 302 296 296 293 288 286 288 290 302 298 305 306 301 303 303 296 307 309 306 303 307 307 298 303 297 299 297 300 300 296 295 302 295 300 295 292 298 303 303 305 306 307 309 309 309 309 309 309 311 311 312 311 312 314 314 314 314 314 315 316 317 317 316 315 315 314 315 316
301 301 301 301 300 300 299 298 299 298 298 299 301 304 303 300 301 303 302 299 290 289 289 290 290 288 290 292 292 299 306 303 302 303 296 302 308 303 303 297 300 296 300 307 298 297 296 296 302 295 293 300 295 291 292 298 300 302 303 304 305 308 307 306 307 309 311 311 312 310 311 312 313 311 311 312 312 313 314 314 315 315 313 313 313 313 314
301 301 301 300 300 299 300 299 299 299 298 298 300 302 301 301 302 305 305 302 297 291 289 290 291 289 291 288 290 297 306 301 305 305 303 300 302 304 301 298 293 297 305 297 294 300 293 302 299 292 296 292 290 295 297 300 300 301 302 303 306 306 305 305 307 309 310 313 312 312 312 313 312 311 311 312 312 313 313 312 313 313 312 312 312 313 313
301 300 300 299 299 301 299 298 302 301 300 304 302 301 300 301 305 305 302 299 300 300 292 290 288 290 294 293 295 296 303 294 302 298 302 295 294 296 297 295 292 294 296 295 296 294 298 305 298 291 292 291 293 300 302 302 302 301 302 303 305 306 306 307 308 309 306 307 308 310 308 308 309 310 310 310 311 312 312 311 311 310 310 310 311 310 311
301 300 299 298 299 293 293 295 301 303 299 299 299 300 300 299 292 292 293 291 295 295 292 293 289 295 299 295 291 303 302 298 301 295 295 298 294 294 295 292 293 292 289 292 295 303 298 295 294 292 292 300 302 302 303 303 303 305 304 304 305 306 306 307 307 307 306 304 304 305 306 307 307 307 308 308 309 309 309 311 311 311 311 310 311 311 311
299 300 299 299 296 292 293 301 303 297 300 301 301 295 293 295 292 289 290 292 291 289 293 293 292 298 296 295 298 306 302 295 295 298 293 301 293 290 294 290 294 293 290 291 294 302 291 293 293 293 293 300 301 302 304 304 304 304 304 304 304 306 306 306 307 306 304 304 304 304 304 303 304 305 306 307 308 309 309 309 309 310 310 310 309 310 311
300 297 294 294 292 297 302 302 299 299 300 295 296 294 289 293 289 287 293 289 289 293 295 291 298 299 300 297 296 296 307 300 293 292 294 296 302 291 293 292 294 290 286 288 292 301 292 288 291 291 292 298 300 304 304 303 303 303 303 303 304 304 305 305 306 307 307 306 307 307 307 306 306 306 305 306 306 307 307 308 308 309 308 309 308 309 310
299 298 297 293 299 300 302 303 304 300 295 292 292 291 290 287 292 292 291 288 289 290 297 298 301 299 302 302 301 296 306 307 306 304 297 293 301 299 292 288 294 288 287 288 293 295 293 291 290 290 291 298 301 303 304 303 303 303 304 304 304 304 304 304 305 306 306 305 305 306 306 306 306 306 306 306 307 307 307 307 307 308 308 308 308 308 309
297 295 296 299 300 302 302 301 296 292 291 293 287 285 288 289 292 291 292 287 287 291 296 297 292 295 295 298 299 301 300 307 304 297 295 291 294 291 290 291 292 287 285 292 298 294 292 287 288 289 298 302 303 304 304 303 302 303 303 304 304 304 303 303 303 304 305 304 304 304 305 305 305 305 306 306 306 306 306 306 306 307 307 308 309 309 309
295 297 300 299 298 296 296 290 293 291 284 283 284 282 287 284 287 287 289 293 297 295 297 303 301 303 304 306 302 305 301 306 297 295 294 291 296 294 290 289 288 284 289 296 292 290 288 288 288 292 301 303 304 303 303 304 304 304 304 304 304 304 303 303 303 303 304 304 304 304 304 304 304 305 305 305 305 305 305 305 304 306 306 307 307 308 308
300 300 296 294 291 292 291 281 292 287 285 286 284 279 284 283 287 289 288 290 295 294 298 295 297 296 292 301 298 297 299 301 298 296 294 296 293 289 288 285 287 293 296 290 289 287 288 290 292 297 303 305 305 304 304 304 304 303 303 303 304 303 303 303 303 303 303 303 303 304 304 303 304 304 305 305 304 304 305 305 306 305 306 307 307 307 308
294 292 291 289 287 291 288 280 291 285 280 283 286 285 286 284 287 289 289 295 296 294 298 299 299 298 293 299 298 298 295 294 298 293 289 292 289 290 287 287 291 291 288 286 288 289 289 288 296 300 302 303 304 305 305 305 305 304 303 303 303 303 303 302 302 302 302 303 303 303 302 303 303 303 303 303 304 305 304 304 305 305 306 306 306 306 307
291 289 289 284 279 286 286 283 286 283 287 289 288 290 290 291 292 292 296 298 296 297 296 297 297 297 294 298 293 292 296 296 293 292 294 293 288 286 291 294 292 287 286 287 285 285 287 294 298 301 302 304 306 306 306 305 304 304 303 302 302 302 303 303 302 302 302 302 302 303 303 303 302 302 303 303 303 304 304 305 306 305 306 306 305 305 307
290 291 290 288 284 286 290 284 285 288 291 292 293 293 292 293 295 295 297 298 295 297 297 299 298 298 294 294 294 294 295 295 290 293 295 289 287 290 293 288 284 285 283 282 284 287 290 297 301 303 304 304 305 306 306 305 304 304 303 303 303 303 303 303 303 302 302 302 302 303 302 303 303 303 303 303 303 304 303 304 305 306 306 305 305 306 307
286 291 290 281 280 285 284 287 293 294 294 294 294 295 295 296 294 294 297 298 298 298 297 296 294 295 293 300 297 291 292 294 291 291 293 290 291 287 286 286 285 287 287 286 287 292 297 300 302 303 305 305 305 306 305 306 305 305 304 303 304 303 303 302 303 302 302 303 303 303 303 302 302 302 302 302 303 303 304 305 305 306 306 306 306 306 306
292 289 286 285 287 288 288 293 292 289 292 294 295 294 294 294 293 295 297 298 297 296 297 295 293 293 289 293 291 291 288 293 287 288 291 289 286 282 283 281 283 283 288 290 293 298 300 302 303 304 304 304 305 306 307 307 307 307 306 305 304 304 305 304 304 304 303 303 304 303 303 303 302 302 302 302 302 302 304 305 306 306 306 305 305 305 306
288 287 289 287 287 289 292 293 291 288 292 292 292 292 293 293 293 295 298 296 297 296 297 295 297 292 291 291 287 289 288 292 291 291 288 286 287 287 286 282 285 286 290 296 297 300 303 304 304 304 304 305 304 306 306 308 305 305 307 307 306 305 305 304 304 304 304 303 303 304 304 304 302 302 302 301 302 303 304 303 303 304 304 305 305 305 305
291 289 289 294 288 288 290 285 287 287 289 290 291 291 292 292 293 294 299 297 296 294 292 290 291 290 288 288 287 284 287 293 289 288 288 286 288 287 285 285 288 293 295 299 301 302 303 304 304 305 306 306 307 307 307 308 308 308 308 307 306 305 304 304 303 303 303 303 304 299 303 304 303 302 303 302 302 302 303 304 304 304 304 305 306 305 305
288 285 287 291 293 292 292 292 292 291 292 293 292 293 294 292 295 296 299 297 295 290 288 291 290 288 286 284 287 290 292 290 288 288 286 288 290 287 287 289 292 295 297 298 300 302 302 305 305 305 306 305 305 307 307 307 307 307 307 306 306 305 304 304 304 303 303 303 303 303 303 303 303 303 302 301 302 302 301 302 302 303 304 305 305 305 306
Wind_Speed
19 19 19 19 19 20 23 25 25 24 25 15 12 11 8 5 5 5 5 3 4 5 6 7 3 6 9 13 13 11 9 10 11 12 10 12 8 5 5 6 2 4 2 3 5 10 6 10 3 8 5 9 9 11 16 13 13 12 8 10 9 5 3 9 12 14 15 16 18 17 17 18 16 15 14 15 16 14 12 8 9 8 7 8 10 8 6
19 19 18 20 19 20 22 22 23 23 22 15 13 9 7 6 6 2 5 4 1 4 4 7 8 9 14 15 14 8 5 9 12 10 12 7 6 6 8 9 4 5 5 7 7 5 4 3 5 6 5 6 8 11 16 14 11 12 6 8 8 6 7 10 12 12 12 13 15 15 15 15 12 12 14 16 16 17 12 10 8 7 8 10 6 8 7
19 19 19 19 20 19 20 20 22 23 24 17 10 8 8 10 6 5 6 5 5 6 5 8 8 10 13 15 17 13 9 7 10 11 11 11 8 7 8 9 8 4 5 6 7 8 3 4 3 2 3 1 7 9 15 15 11 12 8 11 7 7 3 8 10 14 16 14 15 17 16 18 14 15 19 18 20 18 13 10 9 9 8 11 6 4 8
18 20 18 18 19 19 18 19 19 22 24 22 11 8 9 6 6 7 6 3 6 7 5 4 6 10 11 14 12 14 14 13 13 8 9 7 10 11 13 13 10 9 4 3 2 2 5 5 2 2 2 3 5 9 14 14 12 10 7 11 6 4 5 9 9 13 13 15 17 17 17 16 17 20 21 18 19 21 15 9 6 8 10 10 5 7 6
18 19 19 17 17 18 18 18 18 21 25 24 12 10 7 7 3 6 8 10 6 8 2 3 8 9 12 9 10 16 16 15 12 7 4 4 12 13 11 9 8 9 13 6 2 4 5 3 7 3 4 6 5 10 15 15 13 8 7 11 8 5 4 11 13 13 11 15 16 18 21 19 19 19 19 18 18 17 17 12 8 10 8 11 8 7 9
18 18 17 16 17 18 19 17 16 20 24 27 15 7 8 4 5 5 2 5 7 11 6 11 12 14 13 11 11 14 16 17 12 7 3 10 11 8 5 7 10 13 13 13 7 2 3 2 3 7 7 6 4 8 14 14 9 9 10 9 5 3 5 10 12 12 10 14 17 20 19 17 17 19 20 20 18 19 17 14 15 11 8 7 8 5 4
17 17 16 16 16 17 18 16 15 18 24 24 6 9 6 6 6 3 6 6 8 9 13 15 13 15 13 7 10 13 15 17 13 9 10 11 9 8 7 13 14 15 13 10 7 5 2 3 0 3 4 5 6 10 11 13 12 12 9 9 3 3 5 9 10 12 12 14 17 20 21 18 17 17 19 19 19 18 17 17 13 12 10 9 5 4 2
16 16 16 15 16 15 17 16 14 16 22 18 8 8 8 7 6 6 9 9 13 12 9 9 11 11 11 7 11 13 15 17 17 13 9 11 13 7 10 13 14 14 14 11 8 4 4 4 3 3 8 3 3 5 8 7 12 13 9 7 7 3 3 7 9 9 9 10 14 19 20 19 17 17 19 19 19 18 16 16 14 9 6 5 2 3 5
15 15 15 14 15 16 16 17 12 15 18 9 9 7 8 8 5 6 8 11 7 9 9 9 10 9 9 11 14 15 17 17 17 17 14 9 10 10 14 15 16 12 13 14 8 2 4 8 9 11 6 3 5 2 0 4 10 13 8 8 1 8 1 4 6 5 6 10 12 14 15 18 18 18 19 19 19 19 18 15 12 11 7 5 3 5 5
14 15 14 13 14 15 15 16 10 10 16 8 8 7 8 8 6 5 6 7 9 10 11 10 9 7 10 11 15 13 18 17 17 15 8 5 6 10 14 14 13 12 11 12 10 6 8 10 9 6 6 6 4 4 5 7 3 4 8 5 6 4 5 3 5 5 6 13 14 17 17 14 15 15 18 18 17 14 14 13 15 13 8 5 3 2 4
15 15 12 11 13 14 14 15 10 8 8 7 7 6 7 8 9 8 6 9 9 8 10 9 10 9 13 14 17 16 15 17 15 13 8 13 16 12 10 14 11 9 10 11 9 9 12 11 11 8 7 6 6 4 3 4 2 6 5 3 4 8 10 4 6 3 6 14 13 15 13 12 12 13 16 18 17 17 16 15 16 14 10 5 5 2 4
16 13 9 10 12 12 13 14 13 5 6 6 5 6 5 6 7 7 7 9 9 10 9 9 11 12 14 17 15 15 17 18 17 14 15 14 16 14 13 12 7 7 7 9 10 11 9 9 8 7 8 6 2 2 2 2 2 5 5 4 5 8 9 7 2 2 9 11 12 12 11 10 4 9 14 15 15 16 15 13 16 13 12 9 7 7 4
15 11 9 10 12 11 12 14 14 9 3 6 6 6 4 4 7 8 7 7 9 11 10 11 13 12 15 17 16 15 17 16 14 15 13 14 14 12 9 10 12 10 10 10 8 6 3 3 4 8 8 7 6 6 6 4 6 9 9 8 7 4 5 3 3 3 7 9 9 10 8 9 8 9 13 13 12 12 13 12 14 14 11 9 10 9 5
14 11 10 10 12 13 13 13 13 12 3 5 5 5 4 4 6 7 6 6 10 10 11 12 12 16 18 17 15 18 16 15 14 12 13 11 11 10 10 10 11 11 9 7 5 2 2 5 6 7 9 7 5 4 3 5 11 12 12 10 9 8 7 3 4 7 9 9 10 6 9 9 7 5 7 9 11 13 11 7 11 13 10 5 4 5 4
12 10 11 13 13 14 14 12 12 12 8 6 6 6 5 3 4 5 6 6 10 14 11 7 13 17 17 15 16 15 13 14 16 13 15 7 6 10 12 13 12 11 8 7 3 5 4 3 6 7 5 4 3 3 2 4 7 13 14 13 12 8 9 2 5 4 7 10 9 6 7 6 7 6 8 3 2 4 7 6 8 5 1 2 5 6 3
9 11 12 13 14 15 14 12 12 11 10 4 5 5 6 3 4 5 7 6 8 9 4 12 14 14 15 13 14 15 12 12 13 14 12 10 13 16 13 14 13 11 11 8 7 3 4 5 6 5 4 4 3 3 2 3 5 9 12 13 13 11 9 7 7 4 7 8 7 6 7 2 4 8 5 5 4 5 6 6 7 5 2 2 5 6 5
9 11 13 13 15 14 12 13 12 11 9 3 6 5 6 2 3 4 7 6 6 11 16 16 12 12 12 11 11 10 11 10 13 12 11 14 18 16 16 18 13 10 6 5 2 5 4 3 5 5 3 3 2 1 0 3 4 2 2 10 10 8 5 5 6 7 7 7 7 7 2 2 5 5 5 8 6 6 8 8 7 3 4 2 1 3 1
10 12 12 13 14 14 14 14 13 11 10 4 6 6 6 1 3 4 6 7 8 10 8 6 11 11 9 11 12 12 10 10 11 11 10 14 13 14 17 14 14 11 11 5 3 2 7 4 3 2 3 3 3 2 2 4 2 4 3 2 1 3 4 6 7 6 9 6 5 5 4 4 2 1 3 6 8 9 8 4 4 2 4 3 2 1 3
10 11 12 13 14 14 15 14 13 12 12 6 6 7 7 5 6 6 6 8 7 11 13 15 14 13 12 10 11 11 9 12 11 10 11 10 9 20 22 10 9 9 12 6 5 3 5 4 2 1 2 2 4 1 1 1 3 6 5 5 10 6 3 8 3 4 8 6 4 6 4 0 5 1 2 8 10 8 5 4 3 1 1 3 1 3 5
10 10 11 12 13 13 14 14 13 13 12 5 6 6 7 6 5 6 6 8 8 13 16 17 14 13 8 10 10 9 10 10 8 8 9 10 13 21 11 2 7 11 10 11 7 6 2 2 1 1 1 3 4 2 2 2 4 5 6 4 3 3 3 1 2 1 3 5 8 7 6 3 7 0 8 4 3 3 3 3 6 3 4 4 4 3 5
10 10 11 12 12 12 13 13 13 13 11 5 6 7 8 1 5 6 7 8 10 13 12 4 5 13 13 14 14 13 13 13 11 10 8 10 11 9 5 5 9 8 7 8 7 5 4 1 0 1 3 1 1 2 2 1 2 2 6 6 4 9 2 2 2 5 2 5 3 3 3 4 4 1 3 5 8 4 4 3 5 5 5 4 6 6 7
9 10 11 12 12 11 12 14 14 12 9 6 7 8 9 5 4 5 5 5 9 12 14 18 18 19 19 17 16 15 15 15 12 9 9 9 7 5 5 8 9 5 5 6 5 3 5 5 5 2 1 1 5 3 4 2 3 5 5 6 1 9 5 3 3 7 4 3 3 1 5 7 9 10 9 8 6 4 5 5 6 5 6 5 5 5 10
9 10 11 12 11 11 12 14 13 10 9 7 8 7 8 9 8 7 7 10 10 12 13 15 15 16 17 20 19 16 12 10 10 9 8 7 7 4 5 5 6 6 4 6 5 5 6 7 4 6 4 4 1 3 3 5 2 6 4 6 5 4 5 2 5 7 8 10 7 4 1 6 9 8 8 8 7 5 5 7 6 7 7 7 6 5 8
9 10 11 11 10 11 13 14 12 9 8 8 7 8 9 8 9 8 8 8 9 13 13 8 6 4 6 8 5 5 10 11 11 9 7 7 6 5 2 3 5 5 3 8 5 6 6 4 5 4 3 4 2 1 2 3 3 5 3 3 3 4 5 5 4 1 2 4 1 1 8 8 9 10 9 8 7 7 6 6 7 8 8 8 8 6 4
9 10 11 10 11 12 14 13 10 9 8 9 10 9 9 9 7 7 9 7 7 7 8 10 12 10 8 8 8 9 7 7 8 9 9 10 10 8 7 8 7 7 10 10 7 7 3 4 6 2 3 4 5 1 4 2 2 4 2 4 4 5 11 5 6 3 4 5 4 2 7 9 9 7 7 8 8 8 7 7 7 8 9 8 7 6 6
9 10 10 11 11 13 12 11 10 8 8 9 10 9 8 8 8 8 7 7 7 6 7 8 7 8 10 11 8 8 6 5 6 10 11 11 11 10 11 10 9 7 8 8 7 7 6 5 6 3 3 2 1 3 3 3 5 3 3 7 6 6 9 2 4 6 6 6 3 4 4 10 11 10 9 7 6 7 9 8 8 9 10 10 10 10 9
9 9 10 10 11 11 11 11 10 9 9 9 9 9 9 8 7 7 6 6 7 5 6 9 11 13 11 17 14 10 8 6 5 7 9 10 10 9 9 9 9 8 8 8 6 5 5 4 5 5 4 3 4 3 4 1 2 3 3 5 8 4 5 5 2 7 4 2 3 5 1 2 7 9 9 9 8 8 9 9 9 10 10 9 10 10 10
10 11 11 11 11 12 11 10 10 9 9 10 11 9 8 8 5 4 3 3 5 6 9 12 12 14 19 18 7 6 6 7 7 8 8 8 9 8 8 8 7 6 7 7 6 3 4 5 5 3 3 3 6 1 1 6 5 4 7 6 3 4 5 6 4 3 3 6 2 4 4 6 7 7 8 8 8 9 10 11 11 10 10 9 9 10 10
10 11 11 11 10 12 10 9 10 9 9 11 9 9 8 3 2 0 2 3 5 7 9 12 14 13 6 9 13 9 4 4 5 6 6 7 9 8 7 7 6 5 6 5 4 5 4 5 3 4 4 6 5 4 2 2 3 4 5 7 5 3 6 7 2 3 5 5 7 2 3 6 5 8 8 8 8 10 10 9 9 10 9 10 10 9 9
10 10 11 10 10 10 11 11 11 9 9 9 7 7 6 4 2 0 1 2 3 4 5 7 7 3 10 7 6 5 7 5 4 6 7 6 6 7 7 6 5 5 4 4 4 4 5 4 3 3 4 2 4 3 2 3 4 6 5 6 7 7 9 8 7 7 6 4 2 0 5 4 6 7 8 8 9 9 9 10 10 9 9 9 10 10 11
10 10 10 10 10 11 11 12 11 10 10 7 5 4 4 1 4 2 1 3 2 4 4 4 9 9 8 6 8 8 8 6 4 3 5 6 6 7 6 5 5 4 3 2 2 3 3 3 3 4 3 3 3 1 3 4 3 4 7 6 6 6 6 6 6 5 4 5 2 4 9 5 5 5 8 9 8 8 8 8 9 9 7 10 10 10 10
10 11 11 11 12 12 12 12 11 9 7 7 6 5 5 5 5 3 0 3 4 4 4 7 7 3 4 6 4 5 7 7 5 3 4 4 5 5 5 6 4 5 3 4 4 3 2 2 3 4 5 4 4 4 3 2 4 4 5 5 5 5 5 6 5 5 6 7 6 9 6 7 6 7 6 8 7 7 6 7 7 7 6 8 7 8 10
11 11 12 11 11 11 11 11 12 9 8 11 20 18 16 14 8 6 5 4 4 4 3 4 6 5 4 5 9 4 4 7 5 5 5 6 4 4 5 6 4 5 5 1 2 2 1 2 2 3 1 2 2 2 1 5 5 4 4 4 5 4 5 5 5 4 5 6 6 4 3 4 5 5 5 6 7 6 6 6 7 6 7 8 9 8 9
12 11 11 11 11 12 12 12 10 10 10 7 8 6 3 7 6 7 4 4 4 4 2 3 4 6 8 7 6 3 8 7 4 2 1 5 2 3 2 4 4 3 4 3 0 2 2 2 3 1 3 1 1 2 3 4 4 5 4 5 6 3 3 4 6 5 5 5 5 5 4 2 2 1 4 6 7 7 7 7 6 7 7 8 9 9 8
11 11 10 11 12 12 13 14 8 7 6 5 4 6 6 5 7 4 5 4 3 2 2 3 3 6 6 4 3 4 8 8 4 3 3 2 4 5 1 2 3 3 3 5 3 3 3 1 3 3 3 2 1 2 2 5 6 6 5 7 7 5 3 3 5 4 5 4 3 3 2 1 2 4 5 6 7 8 9 9 9 8 7 7 7 8 7
11 11 12 12 13 11 7 7 6 5 4 3 0 5 5 4 5 6 7 7 5 4 3 3 3 5 5 5 4 3 8 8 6 5 1 2 4 4 4 3 4 2 6 4 2 3 2 2 2 1 1 1 5 4 6 5 6 7 8 7 7 6 5 4 4 5 7 4 2 3 2 2 3 4 4 5 6 7 8 9 9 9 9 8 8 8 8
12 12 14 14 8 5 5 1 0 4 3 4 4 7 6 4 3 2 2 3 5 5 5 4 5 7 5 5 3 2 7 4 5 5 3 2 3 0 3 3 2 1 3 4 3 1 0 2 1 2 3 3 3 6 6 6 6 7 6 6 6 5 5 4 5 4 7 3 5 3 6 8 3 3 4 6 7 7 8 9 8 7 8 8 7 6 7
12 13 8 6 5 2 2 2 1 4 3 2 2 4 4 3 2 2 2 3 3 4 3 5 7 7 5 5 5 5 6 4 6 4 3 2 4 3 1 3 1 1 4 2 3 0 1 3 1 2 2 4 5 6 6 5 6 6 6 6 6 6 5 6 6 3 6 4 6 6 4 4 4 6 4 5 5 6 6 6 7 6 6 7 7 6 6
12 7 6 5 4 2 2 5 4 4 3 2 4 2 2 2 2 2 3 2 1 4 4 6 6 5 5 6 6 5 4 4 6 5 4 5 3 2 1 3 2 2 3 2 3 3 2 2 1 2 2 3 4 5 4 5 5 5 5 5 5 6 6 5 6 7 7 7 7 7 8 7 6 6 5 5 5 4 5 6 6 7 6 6 7 7 5
6 5 3 3 3 2 3 7 8 4 5 2 2 2 2 2 2 2 2 2 3 3 3 5 6 6 5 5 5 4 1 5 4 5 4 6 0 4 2 3 1 2 4 1 2 3 1 2 1 1 2 2 4 3 3 3 6 5 5 5 7 6 5 4 3 3 4 4 4 4 4 3 4 3 4 4 4 4 4 4 5 5 7 6 7 7 5
2 3 4 2 4 2 3 2 3 4 3 2 2 2 2 3 3 2 1 3 3 1 3 5 3 6 6 5 5 5 3 2 3 4 3 4 2 3 3 3 1 3 4 1 3 2 1 2 1 2 2 3 4 4 3 4 5 5 6 7 6 6 6 4 3 5 4 4 3 4 5 5 4 4 3 4 4 4 5 5 5 6 6 6 5 6 4
4 4 5 6 5 4 4 4 3 2 2 2 2 4 3 2 1 2 2 3 1 1 4 4 3 3 3 3 5 5 2 3 3 2 2 2 1 3 3 3 1 2 3 2 0 2 1 2 1 2 3 5 5 4 4 4 3 4 5 5 5 4 5 5 5 5 4 4 3 3 3 4 5 5 5 6 6 6 6 6 6 5 6 6 5 6 7
4 5 4 4 2 2 1 3 3 1 2 2 2 3 2 3 3 4 2 2 1 2 1 3 4 2 4 5 6 2 3 3 3 1 2 3 1 2 3 3 1 4 1 1 2 1 3 2 2 3 3 5 5 4 4 4 4 4 4 4 4 4 5 6 5 5 5 5 5 4 4 4 4 4 4 4 5 5 5 5 5 6 5 5 5 5 5
3 4 4 1 1 1 2 3 2 1 2 2 3 4 3 5 3 3 2 1 2 3 2 5 4 5 3 3 5 2 2 3 1 2 3 2 2 2 2 3 4 1 1 3 2 4 0 2 2 4 4 5 4 4 3 4 2 4 4 3 3 4 4 2 2 4 4 3 3 4 4 4 3 4 4 4 4 5 5 4 4 4 5 5 5 5 4
3 2 2 1 1 2 1 1 2 2 4 4 3 5 3 4 1 1 2 1 3 4 3 4 5 5 7 5 3 1 2 1 1 2 2 2 3 3 3 3 3 2 3 3 3 1 2 1 2 3 3 4 4 5 4 3 3 2 3 3 2 3 3 2 2 2 4 4 5 5 5 4 4 4 4 4 4 5 5 5 4 5 5 5 4 4 4
3 2 2 3 2 2 3 3 2 4 4 3 3 4 6 6 6 4 2 3 4 4 4 5 6 5 7 3 2 2 1 2 3 2 2 2 2 4 2 4 3 4 3 3 3 2 1 1 3 4 3 2 4 4 3 2 2 1 1 1 2 1 1 3 3 1 2 3 3 4 4 5 5 4 4 3 4 4 4 5 5 4 5 4 4 5 5
2 2 2 2 3 2 2 4 4 3 3 4 4 4 4 5 5 5 3 4 5 4 5 5 6 6 5 4 3 3 3 1 2 1 2 3 2 3 2 3 3 3 3 3 3 1 2 3 4 4 2 1 2 3 4 3 1 0 1 2 1 1 1 1 2 2 0 1 1 2 3 4 5 4 4 4 3 4 4 5 4 5 4 4 3 4 4
2 1 1 2 3 3 6 5 6 6 4 5 4 4 5 4 5 4 3 5 5 5 6 6 5 3 5 3 4 4 4 1 1 2 1 2 2 2 2 2 3 2 1 2 1 2 2 3 3 3 1 1 2 2 3 3 2 1 2 2 1 2 2 1 0 1 2 1 2 2 2 3 3 4 3 2 2 3 4 4 4 4 4 4 4 4 4
2 2 2 2 2 2 3 5 4 6 4 3 3 5 5 6 4 3 3 4 5 5 4 5 3 3 4 2 3 3 4 2 2 1 0 2 1 1 1 3 3 1 2 2 2 4 3 3 3 2 2 1 2 2 0 1 1 2 1 2 4 4 1 1 0 3 3 2 2 2 1 2 3 3 4 4 5 5 4 4 5 4 4 4 5 5 5
2 3 2 3 3 4 6 5 5 5 5 3 3 4 4 5 4 1 3 6 4 5 5 5 3 3 3 3 3 2 3 2 1 0 1 2 1 2 2 4 1 2 2 5 4 4 4 3 2 2 2 0 1 2 2 1 1 3 2 2 1 2 1 1 2 1 4 4 4 3 2 2 3 3 5 6 5 4 4 4 5 4 3 4 4 4 5
2 2 3 5 5 4 2 3 3 3 3 2 2 3 3 4 4 2 2 5 5 5 3 3 2 3 3 2 2 3 1 2 1 3 1 0 0 2 2 1 2 4 5 6 5 4 3 3 4 3 2 2 1 1 2 2 2 2 2 1 1 1 2 1 2 3 2 3 3 4 4 2 2 4 5 4 5 5 2 1 2 4 4 4 3 4 4
2 4 4 4 6 6 6 6 5 6 6 6 5 4 2 4 2 2 2 6 5 3 3 2 2 2 2 3 2 2 2 2 3 1 1 2 1 1 1 3 5 6 5 5 5 5 4 5 5 4 4 4 4 3 2 2 1 1 1 2 2 2 2 2 2 2 3 3 3 3 2 2 3 4 5 4 4 3 4 5 4 4 4 4 3 3 4
Wind_Direction
345 343 342 342 343 344 343 343 339 337 338 345 348 319 315 316 340 72 124 153 218 267 273 268 284 304 313 315 308 312 304 300 313 313 314 316 306 294 263 284 246 230 271 306 279 271 223 206 166 266 221 177 222 165 195 194 203 207 211 219 205 91 209 204 187 177 175 173 173 198 203 200 205 203 211 197 195 204 202 212 177 209 192 201 174 192 133
345 342 340 342 343 343 343 342 338 333 338 345 334 325 333 330 306 144 147 146 219 273 307 332 325 317 321 324 324 325 300 318 328 326 320 320 312 299 299 292 267 288 200 267 284 335 321 158 164 247 279 157 219 171 192 192 204 205 204 228 164 197 202 215 176 162 171 170 177 192 201 199 201 196 208 202 197 205 220 216 164 207 207 193 148 201 147
344 344 340 341 343 342 343 345 337 330 330 336 329 313 325 292 238 262 138 189 173 290 333 324 320 317 319 323 317 326 332 337 325 320 314 316 279 297 291 302 306 238 205 267 279 295 263 312 207 176 204 105 182 182 185 188 210 203 213 244 168 246 208 203 181 168 165 167 180 180 186 195 191 201 202 209 196 196 204 207 162 197 193 215 219 156 110
340 345 342 340 342 341 344 344 337 328 327 328 328 323 307 357 323 359 340 315 269 261 257 290 314 319 322 320 315 325 325 329 342 350 311 287 305 302 293 291 286 296 210 203 283 283 257 258 355 323 142 214 176 173 189 187 215 188 227 243 227 231 234 223 187 179 169 174 179 177 186 184 194 194 199 192 202 195 196 222 191 194 175 207 144 101 144
337 344 343 340 342 344 349 346 336 327 324 322 324 286 278 303 331 354 328 318 227 332 354 316 331 322 320 308 315 317 320 325 332 48 303 339 322 310 292 280 305 327 325 334 223 280 288 285 292 241 268 206 190 173 192 196 215 163 234 249 245 237 262 228 234 215 185 172 179 177 191 189 194 190 191 201 200 188 199 210 187 194 168 184 88 125 135
337 343 342 340 344 347 353 350 335 329 319 324 317 337 13 337 42 337 6 296 312 327 338 344 317 313 313 304 305 310 321 328 332 334 263 313 313 311 307 313 329 332 333 323 314 103 317 322 300 331 257 201 159 189 189 198 198 185 220 208 258 277 222 199 234 235 218 189 185 177 191 194 191 194 191 193 194 194 194 201 194 178 183 132 89 86 84
337 342 341 341 345 347 355 355 336 328 320 323 343 2 23 11 334 305 19 312 315 312 298 302 302 301 308 297 292 325 327 326 336 336 314 318 303 328 306 314 330 328 326 320 310 348 187 245 61 247 234 225 190 175 181 210 188 211 223 223 135 39 287 206 207 225 227 199 189 173 189 188 192 194 190 194 194 197 189 200 201 186 125 92 90 85 45
335 338 339 340 342 345 355 359 341 326 325 318 12 33 356 12 346 327 331 304 286 280 291 299 305 311 314 309 345 332 327 327 330 328 323 312 304 311 305 311 318 321 320 320 306 337 309 343 304 356 351 35 252 195 209 179 196 202 214 239 107 242 179 206 199 204 208 198 179 169 183 188 192 191 193 192 190 193 193 203 223 238 316 358 320 319 107
332 334 335 340 342 344 352 0 347 325 330 355 9 22 12 341 324 318 311 311 310 319 307 316 321 313 340 344 336 328 325 323 330 315 314 294 291 301 307 307 307 305 308 304 313 164 298 304 290 294 316 314 343 315 162 300 194 193 203 202 32 252 265 196 229 192 192 201 188 179 186 185 191 191 192 191 190 198 194 204 202 227 214 225 277 238 121
328 333 334 339 344 347 350 360 353 332 321 347 0 8 359 337 351 324 304 291 290 289 321 322 325 338 355 332 323 325 321 320 328 318 314 307 299 292 294 297 301 298 299 292 297 290 287 278 277 266 262 255 279 249 257 254 348 278 195 179 164 261 287 229 192 215 198 216 189 167 178 178 193 197 194 189 191 201 192 203 218 217 224 220 224 53 67
327 331 333 341 347 348 352 355 5 327 334 359 350 353 353 356 333 335 307 295 296 315 331 329 336 352 329 325 327 329 319 322 323 323 307 307 307 308 279 288 296 291 283 271 265 267 262 261 264 249 236 251 245 233 206 352 128 259 224 146 254 247 251 280 263 238 188 203 177 164 176 184 198 181 186 192 187 189 192 200 213 212 213 242 270 27 73
326 332 334 341 347 350 349 347 354 356 308 321 323 323 351 331 325 326 331 314 303 313 320 331 336 322 320 337 328 322 321 319 318 317 309 308 305 311 309 297 285 285 259 252 256 276 266 235 235 232 230 218 202 54 357 324 235 242 287 292 3 322 292 283 237 217 174 179 163 175 179 181 2 175 181 188 189 185 202 198 218 215 207 229 247 264 283
327 332 334 338 344 346 346 344 339 353 281 313 310 309 326 325 318 336 324 309 290 320 323 320 305 319 350 335 327 323 317 312 325 326 314 315 316 317 318 312 308 300 303 301 299 276 249 200 172 197 164 145 112 91 57 327 282 284 287 285 270 266 293 324 306 252 160 173 170 174 180 108 175 170 172 176 186 189 198 206 211 211 208 212 235 246 281
327 333 336 337 338 338 338 334 330 335 268 254 285 297 304 319 333 336 339 319 301 304 318 296 321 342 337 334 326 324 324 329 334 324 323 324 307 316 328 316 312 319 316 327 294 324 138 192 144 159 145 144 104 74 26 316 275 277 275 271 260 274 289 291 289 233 171 174 173 136 118 145 131 152 176 171 184 185 194 202 200 204 202 225 253 258 249
332 336 336 337 334 332 330 324 326 327 326 229 283 280 292 298 320 319 317 299 299 303 285 330 341 329 327 323 329 330 332 336 334 335 324 316 323 338 328 332 328 311 305 282 252 181 223 165 149 150 138 160 155 154 185 255 275 253 258 262 267 265 261 24 321 193 184 170 161 144 156 157 165 148 161 158 356 202 172 201 196 157 147 226 269 271 274
340 340 340 338 334 332 328 332 327 325 329 256 257 263 284 286 304 298 306 304 308 300 5 357 328 322 321 314 330 334 335 334 338 329 326 348 338 323 336 338 320 303 285 276 278 280 179 168 147 158 144 151 102 144 196 238 263 240 233 243 243 245 243 249 256 213 182 182 153 166 158 91 355 119 165 144 165 174 139 215 159 94 108 62 275 257 247
337 338 339 337 338 331 332 331 330 321 336 234 288 281 291 171 244 311 313 301 269 259 291 303 313 313 308 319 336 340 349 331 337 342 328 331 325 332 338 333 316 296 331 338 252 241 180 144 99 97 97 78 158 185 139 235 255 212 166 267 251 247 237 212 222 230 203 179 170 159 100 138 281 89 140 165 156 168 173 202 136 84 85 21 243 241 27
332 339 341 341 335 329 328 330 329 328 342 299 262 275 289 189 205 277 293 291 298 287 275 316 333 319 321 332 316 320 318 314 319 318 306 313 320 351 331 327 339 343 0 329 266 117 48 60 61 71 101 123 347 296 212 269 233 286 287 304 252 199 207 210 206 195 208 178 91 90 100 78 1 346 105 135 160 179 192 189 97 29 326 62 328 151 108
333 338 335 334 328 326 325 325 329 330 335 305 263 277 271 237 233 246 287 289 279 274 285 307 304 290 290 294 285 300 300 313 315 320 323 324 357 338 312 279 347 344 352 346 342 52 92 83 126 40 312 151 197 217 79 264 353 325 293 239 185 196 211 179 279 240 178 136 141 99 88 56 298 328 114 137 158 179 181 94 213 249 311 71 117 94 106
330 330 334 328 323 322 321 322 327 332 332 314 248 284 300 274 208 226 284 297 294 285 291 290 282 284 304 305 308 308 319 309 324 330 325 310 327 336 332 130 8 355 355 0 33 21 62 106 256 221 225 320 35 21 122 227 285 340 332 21 354 28 339 126 297 295 108 123 143 142 121 62 357 154 124 3 232 74 26 104 72 352 54 97 103 134 100
322 323 328 324 319 318 319 322 326 329 327 317 244 294 306 26 199 237 245 274 291 296 294 282 315 304 300 288 281 287 293 294 312 316 314 301 313 329 6 347 326 337 352 352 347 13 358 352 103 250 67 328 126 235 51 309 260 75 350 346 19 30 294 156 96 335 145 120 115 82 83 32 33 202 100 78 50 56 51 10 94 56 41 40 108 93 112
313 321 323 319 318 318 319 320 324 320 312 313 291 293 289 314 238 257 271 266 274 264 269 288 290 282 277 270 263 258 259 267 278 291 303 304 312 292 275 299 297 316 345 336 336 345 4 348 301 301 338 325 308 11 352 298 51 23 29 2 68 9 38 12 47 10 26 65 75 28 21 62 56 67 81 71 71 74 40 44 44 40 57 29 100 104 121
313 320 320 314 314 314 313 317 322 316 305 321 311 304 305 310 307 307 298 288 281 278 274 274 273 269 261 258 250 249 250 250 259 256 260 278 300 291 284 306 339 354 317 13 341 323 318 329 306 329 321 64 10 333 38 32 55 4 31 48 41 0 1 4 58 62 80 61 71 257 206 86 78 70 58 64 76 57 35 34 38 37 36 38 49 68 115
319 320 315 312 313 314 313 316 317 309 306 321 316 311 304 306 302 299 285 286 300 310 303 266 261 287 321 340 348 215 218 227 232 240 239 252 269 292 248 209 317 312 335 5 358 315 322 308 294 332 316 17 312 293 42 59 24 341 1 66 32 18 353 91 74 91 259 73 304 348 72 76 84 84 81 76 62 57 46 45 39 39 35 49 66 70 91
319 316 310 309 311 312 314 317 310 307 321 320 304 279 277 284 288 305 317 314 313 317 299 303 290 269 291 302 285 270 253 232 203 211 213 221 233 263 301 360 340 313 313 320 323 305 279 288 289 264 310 50 343 54 264 351 98 352 20 52 331 75 347 93 104 72 78 106 112 356 60 61 50 51 66 68 69 73 69 61 50 49 55 47 63 95 93
314 313 311 308 309 310 316 316 306 311 319 319 308 301 307 301 303 296 283 279 282 283 287 302 298 313 312 309 306 313 318 287 226 207 216 221 227 254 284 303 300 291 292 301 293 283 287 275 292 336 350 352 289 341 41 46 76 55 56 36 8 332 319 51 65 90 71 58 66 300 72 56 55 58 60 57 55 59 64 64 67 65 57 59 57 50 62
305 309 306 304 305 314 319 319 315 319 313 314 301 300 290 293 290 299 308 307 312 270 232 269 303 308 328 315 300 280 264 242 238 230 224 220 239 250 258 274 291 302 306 309 299 266 268 279 289 318 306 350 328 284 307 204 74 97 54 10 338 21 34 2 158 115 100 35 5 329 296 71 49 54 45 55 52 56 62 59 58 61 68 63 71 69 68
305 302 303 303 305 310 313 317 316 312 312 308 293 291 285 281 311 347 329 270 237 295 307 300 301 305 312 282 272 268 263 248 232 225 229 227 233 247 257 266 278 293 311 323 324 323 313 316 18 287 273 1 326 214 142 60 26 54 52 54 46 57 22 11 37 28 57 36 98 329 49 81 54 43 46 43 50 53 56 53 51 52 57 63 66 75 82
301 302 299 301 301 299 302 314 314 315 327 305 301 294 271 255 317 85 238 229 250 286 289 289 284 271 291 348 319 288 246 223 239 244 246 235 218 239 254 257 268 291 299 299 294 295 314 339 351 327 351 348 311 314 322 163 106 41 47 57 65 17 83 89 119 139 115 27 46 58 3 61 44 51 50 47 39 61 60 46 53 59 56 53 61 62 68
299 300 300 293 292 295 305 311 312 309 321 313 308 287 282 168 212 324 86 256 278 305 300 318 314 305 339 314 289 302 301 290 261 233 238 237 229 225 234 247 249 250 284 289 322 326 355 324 353 315 313 332 287 315 303 62 78 86 41 51 41 42 46 58 35 28 23 35 331 196 108 49 28 39 52 51 53 50 56 55 45 52 57 54 54 58 59
294 293 297 296 294 296 296 301 300 311 300 297 304 288 297 317 117 229 125 276 316 286 285 269 273 299 293 254 260 283 306 308 305 292 240 232 228 224 223 241 265 240 260 239 258 317 318 338 360 355 342 32 346 325 1 305 107 60 52 38 40 35 49 41 44 41 21 29 2 51 60 19 351 354 45 37 50 51 60 61 62 47 39 64 61 60 55
286 289 294 298 295 293 294 293 297 301 290 271 268 306 344 351 4 28 94 269 307 272 278 305 303 281 307 290 289 308 301 315 285 210 214 201 215 197 210 212 243 199 250 296 327 314 272 306 280 311 328 116 170 11 305 329 47 50 31 49 40 27 33 38 37 47 39 27 20 70 48 67 14 42 31 27 37 43 49 64 55 63 59 71 77 72 71
282 288 291 293 294 293 292 293 291 285 281 311 318 297 277 260 251 255 239 252 256 258 273 286 291 302 275 319 324 276 335 288 210 225 213 191 218 178 215 208 239 265 102 283 248 271 272 259 261 280 39 195 281 120 62 47 41 35 20 36 40 29 38 43 40 32 53 51 40 87 112 70 38 38 34 37 39 35 36 45 57 50 54 58 55 58 60
280 288 294 292 291 290 286 285 288 289 267 259 253 229 144 121 193 198 239 224 258 272 272 276 293 302 294 295 274 63 348 337 310 263 250 169 227 206 222 192 196 228 181 227 162 262 270 294 260 264 186 172 334 45 38 49 25 29 23 46 22 25 28 52 45 26 45 69 81 93 95 58 315 11 52 43 53 49 42 46 48 57 53 50 57 52 49
286 287 285 284 285 290 291 277 251 217 243 241 257 87 85 53 21 129 201 216 254 235 235 227 225 298 312 317 292 61 358 317 316 35 315 130 178 257 230 249 158 241 155 208 261 268 273 304 359 253 61 83 88 74 61 41 40 22 12 36 22 2 355 18 39 37 54 45 69 118 139 42 20 65 53 42 45 41 42 44 40 43 57 50 38 44 44
285 281 282 285 290 283 263 228 233 243 233 263 85 71 5 358 245 242 225 211 245 307 297 298 297 288 301 310 318 354 341 311 308 297 228 302 217 213 267 276 246 188 122 177 234 205 246 44 259 60 65 31 40 14 44 15 29 42 33 29 22 14 39 14 353 58 32 16 32 62 113 148 74 59 52 47 40 43 42 41 43 38 41 45 40 33 30
280 280 285 283 267 219 241 294 198 261 1 38 346 307 321 317 235 245 146 206 218 231 270 292 280 268 278 310 299 295 326 310 347 323 309 286 329 60 236 232 258 99 212 208 216 208 58 128 275 25 43 53 64 54 45 40 27 31 40 22 25 30 22 24 349 24 98 318 6 19 27 2 340 51 47 43 36 35 37 42 34 33 36 34 30 31 37
275 281 281 249 231 247 243 192 168 45 24 203 276 255 187 197 220 192 210 231 201 207 230 237 257 272 286 281 288 341 299 315 340 334 307 18 299 235 211 273 2 302 267 199 120 6 162 239 177 96 91 63 67 57 55 51 57 34 31 21 20 5 33 23 12 13 95 91 58 37 126 152 46 47 27 32 29 29 31 23 27 20 27 27 19 16 27
268 265 242 238 253 266 346 75 86 93 276 216 239 265 224 196 247 226 211 193 177 227 210 235 254 247 255 269 284 325 335 323 307 311 309 25 320 319 331 290 114 262 278 258 120 199 245 248 141 130 78 110 109 84 85 69 56 44 43 36 17 15 356 26 40 52 65 67 56 53 38 30 26 31 19 10 12 23 19 20 18 16 2 30 7 348 14
250 249 261 247 249 53 81 126 145 201 226 252 202 242 270 185 241 268 150 232 229 217 199 237 235 256 265 294 324 305 125 306 324 325 335 301 191 305 3 293 2 293 281 269 107 194 239 238 195 104 97 92 89 108 90 65 72 61 51 38 40 20 15 7 20 22 58 62 44 37 35 46 27 14 16 8 352 355 4 14 359 12 2 12 16 338 3
244 276 242 271 32 345 355 327 228 226 246 251 240 219 258 255 224 258 264 248 255 209 204 284 255 248 190 229 253 281 106 222 289 305 287 277 344 287 278 285 12 289 278 292 108 229 225 274 83 71 71 101 113 114 108 110 101 84 53 39 36 36 24 23 17 25 9 20 18 19 23 6 1 348 353 334 311 310 318 319 329 338 333 324 339 339 332
19 330 339 313 291 281 271 216 217 218 228 254 262 253 234 263 246 238 233 261 237 228 206 211 252 282 346 322 311 314 316 48 306 280 290 280 33 297 302 291 240 278 277 72 310 256 271 255 126 98 95 101 106 113 113 116 99 94 66 53 44 40 45 36 35 35 12 17 9 16 8 358 349 325 330 335 349 344 334 319 316 325 325 334 315 311 328
189 233 270 278 254 230 238 243 189 225 219 214 228 272 235 246 228 247 227 228 259 267 165 195 268 315 282 274 254 236 316 22 309 297 268 288 324 247 283 291 276 243 302 349 252 250 250 276 74 91 116 115 115 119 111 105 105 94 93 65 51 39 43 45 36 44 40 36 31 20 18 12 12 7 357 346 348 329 341 351 353 332 328 320 320 315 314
228 238 219 211 250 215 212 245 166 206 255 229 210 233 206 241 247 228 258 301 1 250 30 323 333 320 301 130 290 303 233 189 241 259 269 273 270 268 258 244 235 17 19 247 245 247 27 69 45 84 105 113 127 114 100 112 97 119 124 97 69 64 63 60 46 54 59 59 54 34 28 18 4 12 3 8 356 358 359 3 7 348 320 320 323 337 1
239 218 221 233 234 178 170 269 182 202 240 219 224 265 269 268 306 228 290 54 257 315 335 275 306 303 304 310 273 0 301 313 89 266 276 299 292 290 263 274 359 299 259 255 238 178 133 136 114 131 132 142 126 118 112 111 126 122 126 130 80 59 48 41 72 42 36 26 24 13 18 10 6 21 7 353 357 345 337 350 355 354 358 343 335 342 11
224 247 219 216 234 240 221 246 188 238 238 246 252 262 286 303 309 312 325 302 296 313 310 326 297 294 286 292 296 310 237 269 284 280 291 276 286 274 308 341 292 280 284 257 238 211 109 92 69 59 59 70 132 125 116 113 85 94 92 69 87 123 30 36 28 19 30 29 15 11 9 4 1 6 13 359 353 343 352 348 349 0 0 348 354 345 345
250 249 265 283 278 233 205 240 224 235 299 295 288 301 281 283 290 286 317 321 296 312 303 299 295 304 299 296 283 243 235 261 258 261 293 275 261 301 314 281 270 241 241 268 282 63 98 44 52 52 51 211 138 130 142 137 142 327 52 100 293 196 284 63 11 38 330 302 342 349 340 2 357 13 10 6 6 356 353 341 349 7 10 9 356 345 341
240 261 270 241 228 213 216 224 234 262 263 265 277 272 281 285 277 283 344 313 307 294 294 308 299 304 275 212 225 283 294 278 302 307 323 303 305 276 294 269 258 244 324 296 22 47 32 44 38 50 62 139 176 165 167 146 155 166 307 330 105 167 220 177 246 337 312 285 244 275 325 334 355 353 356 2 350 6 13 347 353 3 357 0 13 357 346
317 290 237 254 268 276 268 283 297 281 267 241 262 273 273 271 282 311 310 303 298 298 313 301 323 312 284 295 280 264 253 219 247 253 144 239 244 257 253 265 270 224 55 345 29 28 27 27 49 47 85 149 149 207 203 171 205 208 225 320 350 340 354 176 266 353 330 296 288 271 303 316 333 323 329 342 347 359 356 346 350 345 344 357 8 357 346
228 228 239 252 262 251 238 268 277 280 274 243 231 257 273 272 272 343 345 294 305 307 306 286 254 272 297 303 278 280 273 241 187 186 236 237 259 273 248 260 321 357 32 23 7 4 15 24 68 75 53 144 175 237 234 236 194 268 291 304 278 271 298 123 270 330 331 347 320 314 318 303 311 326 340 348 345 337 344 16 340 321 353 6 2 355 11
229 264 259 256 258 282 350 267 270 273 265 252 222 244 263 275 291 303 8 302 302 300 303 316 323 288 287 278 271 250 261 11 293 241 239 85 19 287 264 250 44 7 3 354 349 358 360 18 11 20 34 14 25 309 307 295 273 259 281 270 293 293 299 23 343 335 329 314 342 316 306 309 314 324 325 339 332 314 299 136 339 337 348 345 13 7 3
223 228 240 221 228 258 272 293 297 275 287 301 304 303 317 277 292 307 304 273 274 293 310 319 325 320 291 282 313 320 313 270 266 269 199 139 171 269 322 323 341 351 352 331 349 359 8 20 32 15 3 15 351 353 0 12 350 342 9 15 3 341 17 16 11 357 320 346 10 354 356 345 316 311 322 307 285 311 338 351 9 349 334 335 11 5 359